Vertical_Velocity
0 -2 -2 -2 -2 1 -4 -3 1 2 15 -4 2 2 3 3 1 2 -0 3 1 5 6 -2 13 6 21 13 7 7 -4 14 5 4 4 0 5 2 -2 -0 1 -0 0
-1 1 3 -1 -1 -2 -1 -2 1 -1 3 -2 1 2 -1 -1 0 1 0 1 2 -1 3 9 5 7 7 1 2 -3 -4 15 -10 -5 2 0 2 2 4 2 -1 3 1
-4 1 -5 -4 -3 -1 -2 -4 2 -1 -1 -5 -1 3 -2 -3 -2 -1 -2 -0 1 2 1 0 1 -1 7 22 6 -3 2 4 2 -5 -9 -1 -1 4 -0 4 6 4 6
2 -2 -3 -2 -3 -3 -4 -2 -2 0 2 -1 -1 3 0 -2 -3 1 -3 0 -1 -1 -0 0 1 -2 7 3 -8 14 5 -2 -1 9 8 5 7 -0 6 6 -1 1 5
-3 -3 -4 -2 -2 -4 -2 -1 0 -1 -2 -1 -4 1 5 -1 -3 -5 -3 0 -1 -1 -1 -1 -2 -1 9 16 2 -0 9 5 9 -3 5 3 -2 -3 -6 -5 1 6 -1
-2 -4 -1 -2 -3 -3 -3 -2 1 0 -4 3 6 4 1 -5 -2 -5 1 2 -0 -1 -2 -0 -0 3 0 -3 13 3 -6 -16 -5 -1 -0 -6 -3 0 -4 -2 2 -3 -4
-2 -2 -3 -4 -3 -2 -1 -2 2 2 -5 -7 -3 18 3 3 3 -6 -0 3 0 -2 0 -1 1 -1 1 5 10 10 -2 -1 15 -5 -9 -6 1 -6 -7 -3 3 5 2
-2 -4 -2 -2 -3 -2 -4 -2 -1 -1 -4 -4 1 5 10 -10 13 -5 -2 3 0 -0 1 -1 -0 2 5 11 22 8 15 0 -5 -0 8 12 21 8 12 7 8 3 5
-1 -2 -3 -4 -1 -6 -2 -2 -1 -5 1 -12 0 16 16 8 5 -6 0 -1 -2 -0 -1 -2 -1 -0 -1 2 17 9 10 11 2 1 2 5 5 4 -5 0 2 -2 2
-3 -5 -3 -1 -1 -6 -4 -0 -0 -2 -4 0 -5 29 -3 -6 0 -4 -1 1 0 -1 2 0 1 1 -1 2 9 9 1 -0 -5 4 -1 5 2 6 8 9 7 -2 1
-1 1 -4 -7 -2 -1 -4 -1 -1 -2 -3 6 -2 20 13 1 2 1 -2 0 -1 -0 0 -1 -4 1 1 -0 8 17 16 9 1 1 1 4 4 7 3 10 -3 9 -2
-6 -10 -13 -4 10 -1 -0 -2 -3 -4 -4 -7 -3 -4 10 6 6 1 1 1 -1 -1 0 -0 -2 -1 1 4 9 15 12 4 -1 3 10 9 -4 -3 0 5 -0 -1 -2
-2 -4 -1 10 5 -1 0 0 -7 -4 -1 -1 0 9 1 8 2 -0 3 1 1 2 2 0 1 -1 -1 0 3 1 3 3 -4 -5 -3 -2 4 3 6 -1 -2 -4 -2
-1 7 5 2 1 -0 1 -4 -4 -2 0 1 3 1 -1 28 -3 10 -3 -2 -1 1 -0 -2 1 -1 1 0 4 6 4 4 4 4 0 1 4 4 -1 -3 -2 -2 1
2 0 -0 -0 -3 2 -2 -7 -3 1 2 1 3 2 4 2 14 24 -0 -6 -6 -2 -2 1 1 2 1 1 2 6 5 4 2 2 2 -0 0 -1 -2 -2 1 2 1
-5 0 1 1 1 -3 -2 -4 -5 -2 -2 1 3 4 1 0 2 16 16 4 3 4 -0 1 -3 1 4 1 0 -1 4 4 4 1 -1 1 -2 -1 -2 -2 -1 -0 -2
6 3 1 -2 -1 -1 -1 -1 -4 -2 0 2 6 4 5 -0 -11 -0 27 16 10 3 3 1 3 -0 -1 3 4 1 2 -1 3 -1 -5 -2 -3 -1 -2 -1 -1 -1 -1
0 -0 -2 -1 -0 2 1 -2 0 -1 -1 2 10 11 13 9 -4 -4 17 -4 14 8 7 6 1 2 -2 -1 1 0 -2 1 -2 -6 -3 -1 -1 0 -4 -1 -1 -1 2
0 -1 -1 -0 2 1 1 2 -0 1 2 7 10 10 16 17 5 4 0 -8 2 3 6 4 -0 2 -1 -0 -2 -1 -5 -8 -3 -1 -1 -2 -1 0 -1 -0 -1 -0 -1
-1 -0 -0 -1 -0 1 2 0 -2 -2 -1 2 1 7 7 5 2 3 3 -0 2 2 1 3 -1 6 1 1 2 -3 -4 1 -1 -1 -1 -1 -1 -0 -2 -2 -1 -3 -2
2 1 -0 -1 -1 1 2 1 2 -1 -2 -2 -4 -2 -4 -2 4 5 4 1 -4 1 3 -2 10 2 2 -4 -2 -0 -2 -2 1 1 -0 1 0 -3 -2 -2 -3 -2 1
0 0 -1 -1 -0 1 1 0 -1 -0 1 1 3 5 6 2 -0 1 4 4 5 2 7 -4 -0 -2 -2 1 -1 0 -1 -3 -1 -1 -2 -0 1 -0 -2 -2 -0 -0 -1
1 -1 -1 -0 -1 0 1 1 -1 -2 -1 1 4 0 0 -1 5 1 -0 0 -0 -1 -0 -5 -1 -3 -0 2 -0 2 2 -1 -0 -1 -0 -0 -3 -2 -0 -1 -1 -1 0
2 0 -1 -1 1 -0 -1 -2 -1 0 -1 1 1 1 -0 1 2 -0 2 1 -1 -1 1 0 3 1 3 -1 -1 -0 1 1 -0 -3 -1 1 -1 -3 -1 -1 -1 -3 -2
1 1 1 0 -0 1 1 1 -1 -1 1 1 1 -0 4 2 2 -0 -2 1 2 -0 0 -1 -3 -2 -1 0 2 1 -2 -1 -1 -2 -0 -1 -1 -3 -3 -3 -0 1 3
1 0 0 1 0 -1 0 0 1 2 2 3 -0 -2 -0 -4 -3 -1 -1 1 1 1 0 -2 -2 -0 -1 1 0 -1 -1 -1 1 2 -1 -1 -2 -0 1 1 0 -2 -3
Height
1422 1421 1420 1417 1416 1415 1415 1416 1416 1415 1415 1417 1421 1424 1426 1428 1432 1436 1439 1443 1445 1446 1448 1451 1450 1454 1451 1453 1462 1466 1475 1483 1487 1491 1499 1504 1511 1516 1520 1524 1528 1532 1535
1420 1418 1415 1413 1411 1410 1409 1410 1410 1409 1409 1411 1415 1417 1420 1423 1426 1428 1431 1435 1437 1439 1441 1443 1443 1445 1443 1447 1453 1457 1465 1475 1479 1485 1491 1496 1504 1509 1514 1518 1521 1526 1528
1415 1414 1412 1411 1408 1407 1405 1406 1405 1405 1405 1405 1408 1411 1414 1417 1419 1421 1424 1427 1430 1432 1433 1435 1437 1439 1439 1440 1442 1450 1458 1466 1472 1476 1481 1489 1496 1502 1507 1510 1514 1517 1519
1411 1409 1408 1407 1405 1403 1402 1401 1400 1399 1399 1399 1402 1405 1407 1410 1412 1414 1417 1421 1423 1425 1427 1429 1430 1432 1431 1434 1439 1442 1449 1455 1463 1471 1475 1481 1488 1494 1500 1504 1506 1511 1513
1404 1405 1404 1402 1400 1399 1398 1396 1393 1392 1392 1393 1394 1397 1400 1402 1405 1409 1412 1415 1417 1419 1420 1422 1424 1426 1429 1430 1432 1436 1440 1445 1454 1461 1467 1472 1477 1484 1489 1495 1500 1503 1508
1399 1400 1399 1397 1395 1393 1392 1389 1386 1385 1385 1386 1386 1386 1389 1392 1397 1403 1406 1409 1411 1413 1414 1416 1418 1421 1424 1427 1427 1428 1432 1437 1443 1452 1457 1462 1470 1478 1483 1490 1494 1498 1503
1397 1395 1393 1391 1389 1387 1385 1383 1380 1378 1378 1377 1378 1378 1380 1388 1388 1394 1399 1402 1404 1406 1408 1410 1412 1415 1418 1421 1423 1424 1428 1436 1439 1444 1449 1455 1461 1470 1477 1484 1489 1492 1494
1395 1391 1389 1386 1384 1381 1379 1376 1375 1372 1371 1371 1370 1373 1348 1378 1383 1385 1392 1395 1398 1400 1402 1404 1407 1410 1412 1415 1413 1415 1419 1426 1434 1441 1447 1453 1459 1466 1472 1477 1482 1486 1491
1391 1388 1385 1383 1379 1375 1374 1372 1370 1367 1365 1365 1363 1366 1366 1374 1370 1380 1386 1388 1390 1393 1395 1398 1400 1402 1405 1407 1407 1411 1411 1416 1426 1437 1443 1450 1456 1460 1465 1470 1474 1478 1484
1387 1384 1381 1379 1375 1371 1370 1367 1364 1363 1360 1359 1359 1358 1360 1363 1368 1374 1378 1381 1383 1386 1389 1391 1393 1395 1397 1399 1401 1403 1406 1409 1417 1426 1432 1440 1448 1453 1458 1463 1468 1470 1476
1385 1381 1377 1375 1372 1367 1364 1362 1359 1356 1356 1354 1355 1353 1352 1360 1362 1367 1371 1375 1377 1381 1383 1385 1387 1389 1389 1391 1395 1399 1400 1402 1409 1419 1426 1431 1438 1445 1451 1455 1462 1469 1472
1383 1380 1377 1375 1367 1362 1359 1357 1355 1352 1351 1351 1351 1352 1354 1353 1356 1361 1365 1368 1372 1376 1378 1380 1381 1384 1386 1388 1392 1396 1397 1401 1409 1416 1422 1425 1436 1443 1451 1454 1460 1466 1471
1380 1377 1374 1367 1360 1356 1353 1351 1350 1348 1348 1347 1348 1347 1349 1347 1350 1355 1360 1363 1367 1371 1374 1376 1378 1381 1384 1388 1393 1397 1399 1404 1411 1419 1424 1432 1436 1442 1446 1451 1458 1465 1471
1382 1376 1368 1361 1356 1352 1349 1347 1345 1345 1343 1343 1343 1344 1345 1343 1344 1347 1353 1358 1362 1367 1369 1372 1377 1381 1385 1389 1393 1398 1403 1407 1412 1418 1424 1430 1436 1441 1445 1454 1460 1466 1471
1376 1370 1365 1359 1354 1349 1346 1343 1342 1341 1340 1339 1340 1340 1342 1343 1340 1345 1347 1351 1357 1363 1367 1371 1376 1381 1385 1390 1396 1401 1406 1411 1415 1421 1426 1431 1437 1443 1450 1457 1463 1466 1470
1375 1369 1363 1357 1353 1350 1347 1345 1342 1337 1335 1336 1337 1338 1340 1341 1341 1346 1345 1348 1354 1359 1364 1367 1373 1380 1385 1389 1395 1401 1408 1413 1417 1422 1428 1434 1440 1446 1452 1458 1463 1467 1470
1375 1367 1361 1357 1354 1352 1349 1347 1343 1339 1335 1334 1335 1336 1338 1340 1346 1349 1350 1346 1352 1357 1361 1366 1371 1378 1384 1390 1396 1403 1408 1415 1420 1425 1431 1438 1444 1449 1455 1460 1464 1469 1471
1375 1369 1365 1361 1358 1355 1352 1350 1348 1345 1342 1342 1340 1338 1338 1337 1342 1351 1351 1352 1352 1358 1363 1364 1369 1377 1385 1393 1400 1405 1411 1417 1423 1430 1438 1443 1449 1452 1457 1462 1466 1470 1473
1376 1372 1369 1366 1362 1360 1357 1355 1353 1352 1350 1352 1352 1351 1351 1347 1347 1352 1351 1357 1358 1362 1367 1370 1378 1384 1390 1397 1403 1409 1415 1422 1429 1435 1441 1447 1452 1456 1460 1464 1468 1472 1474
1380 1377 1373 1370 1368 1365 1363 1361 1360 1358 1357 1357 1356 1356 1355 1354 1352 1357 1361 1366 1369 1373 1377 1381 1385 1391 1396 1403 1408 1413 1421 1428 1433 1439 1444 1449 1453 1458 1462 1466 1470 1472 1475
1385 1381 1378 1376 1374 1372 1370 1369 1368 1368 1368 1367 1367 1367 1366 1364 1362 1364 1367 1370 1376 1381 1383 1390 1395 1399 1404 1409 1415 1418 1426 1432 1438 1442 1447 1451 1454 1458 1463 1466 1470 1473 1475
1390 1386 1384 1382 1380 1379 1377 1376 1375 1375 1375 1374 1373 1373 1373 1372 1373 1374 1377 1380 1385 1390 1394 1399 1404 1406 1412 1417 1422 1426 1430 1436 1442 1445 1450 1454 1457 1460 1463 1467 1470 1472 1474
1395 1392 1389 1388 1386 1385 1383 1382 1382 1382 1382 1381 1380 1381 1382 1382 1382 1384 1387 1389 1393 1397 1402 1407 1412 1415 1421 1425 1429 1434 1436 1440 1445 1448 1452 1455 1458 1462 1464 1467 1469 1471 1472
1400 1397 1395 1394 1393 1391 1391 1390 1390 1390 1390 1389 1389 1390 1391 1393 1392 1394 1396 1400 1403 1407 1411 1415 1420 1424 1427 1430 1434 1438 1441 1444 1447 1450 1455 1457 1459 1463 1465 1467 1468 1469 1471
1405 1402 1401 1400 1399 1398 1397 1397 1397 1398 1397 1398 1397 1399 1400 1400 1402 1403 1405 1408 1410 1413 1417 1420 1426 1430 1433 1437 1439 1441 1444 1447 1450 1453 1456 1458 1460 1462 1465 1466 1467 1468 1469
1409 1407 1405 1404 1404 1403 1403 1403 1403 1403 1403 1403 1403 1406 1408 1408 1410 1411 1413 1416 1418 1420 1422 1426 1431 1435 1438 1440 1442 1444 1447 1450 1453 1454 1456 1458 1459 1461 1463 1464 1466 1467 1467